This demonstration page uses our WeatherBlox Daily Observations layout. Learn more.

Left ArrowRight Arrow

Hourly Observations for November 2, 2018

Temp ( °F °C ) Dew Point ( °F °C ) Humidity (%) Winds ( mph kmh ) Pressure ( in mb ) Visibility ( mi km ) Precip ( " mm )
12:36 am 00:36 Cloudy 48 8.9 46 7.8 93 93 SW 6 9 29.65 1004 10 16 N/A
12:53 am 00:53 Cloudy 48 8.9 46 7.8 93 93 WSW 8 13 29.62 1003 10 16 N/A
1:23 am 01:23 Cloudy with Light Rain 48 8.9 46 7.8 93 93 WSW 10 17 29.65 1004 6 10 N/A
1:29 am 01:29 Cloudy with Light Rain 48 8.9 46 7.8 93 93 W 12 19 29.65 1004 3 4 0.01 0.25
1:36 am 01:36 Cloudy with Light Rain 48 8.9 46 7.8 93 93 W 8 13 29.65 1004 3 4 0.02 0.51
1:41 am 01:41 Cloudy with Light Rain 47 8.3 45 7.2 93 93 W 12 19 29.68 1005 3 5 0.02 0.51
1:48 am 01:48 Cloudy with Light Rain 46 8 45 7 93 93 W 9 15 29.68 1005 4 6 0.02 0.51
1:53 am 01:53 Cloudy with Mist and Fog 47 8.3 45 7.2 93 93 W 8 13 29.65 1004 5 8 0.02 0.51
2:17 am 02:17 Cloudy with Mist and Fog 46 7.8 43 6.1 89 89 WNW 13 20 29.71 1006 4 6 N/A
2:25 am 02:25 Cloudy with Light Rain 45 7.2 43 6.1 93 93 WNW 10 17 29.71 1006 3 5 N/A
2:45 am 02:45 Cloudy with Light Rain 45 7.2 43 6.1 93 93 W 9 15 29.71 1006 3 5 N/A
2:53 am 02:53 Cloudy with Light Rain 45 7.2 43 6.1 93 93 WNW 15 24 29.70 1006 4 6 N/A
3:26 am 03:26 Cloudy 44 6.7 41 5 89 89 WNW 12 19 29.74 1007 10 16 N/A
3:48 am 03:48 Cloudy 45 7 41 5 87 87 WNW 12 19 29.77 1008 10 16 N/A
3:53 am 03:53 Cloudy 44 6.7 41 5 89 89 WNW 8 13 29.74 1007 10 16 N/A
4:50 am 04:50 Cloudy 43 6 39 4 87 87 WNW 13 20 29.77 1008 10 16 N/A
4:53 am 04:53 Cloudy 43 6.1 40 4.4 89 89 WNW 10 17 29.75 1007 10 16 N/A
5:27 am 05:27 Cloudy 43 6.1 40 4.4 89 89 WNW 9 15 29.80 1009 10 16 N/A
5:35 am 05:35 Cloudy 43 6.1 39 3.9 86 86 WNW 10 17 29.80 1009 10 16 N/A
5:53 am 05:53 Cloudy 43 6.1 39 3.9 86 86 W 5 7 29.78 1009 10 16 N/A
6:53 am 06:53 Cloudy 43 6.1 39 3.9 86 86 W 6 9 29.80 1009 10 16 N/A
7:53 am 07:53 Cloudy 43 6.1 39 3.9 86 86 W 6 9 29.82 1010 10 16 N/A
8:53 am 08:53 Cloudy 42 5.6 39 3.9 89 89 WNW 5 7 29.84 1011 10 16 N/A
9:53 am 09:53 Cloudy 44 6.7 39 3.9 83 83 WNW 8 13 29.85 1011 10 16 N/A
10:53 am 10:53 Cloudy 43 6.1 39 3.9 86 86 NW 9 15 29.85 1011 10 16 N/A
11:08 am 11:08 Cloudy 43 6.1 39 3.9 86 86 NW 6 9 29.85 1011 10 16 N/A
11:46 am 11:46 Cloudy 44 6.7 40 4.4 85 85 NW 9 15 29.85 1011 10 16 N/A
11:53 am 11:53 Cloudy 44 6.7 39 3.9 83 83 WNW 7 11 29.85 1011 10 16 N/A
12:13 pm 12:13 Cloudy 44 6.7 39 3.9 83 83 WNW 7 11 29.88 1012 10 16 N/A
12:53 pm 12:53 Cloudy with Light Rain 44 6.7 41 5 89 89 NW 6 9 29.86 1011 4 6 N/A
1:04 pm 13:04 Cloudy with Light Rain 44 6.7 41 5 89 89 NW 7 11 29.88 1012 3 5 0.01 0.25
1:08 pm 13:08 Cloudy with Light Rain 43 6.1 41 5 93 93 NW 5 7 29.88 1012 3 4 0.01 0.25
1:15 pm 13:15 Cloudy with Light Rain 44 6.7 41 5 89 89 WNW 5 7 29.88 1012 4 6 0.01 0.25
1:33 pm 13:33 Cloudy 44 6.7 41 5 89 89 WNW 6 9 29.88 1012 10 16 0.01 0.25
1:53 pm 13:53 Cloudy 45 7.2 41 5 86 86 W 7 11 29.87 1011 10 16 0.01 0.25
2:00 pm 14:00 Cloudy 45 7.2 41 5 86 86 W 7 11 29.88 1012 10 16 N/A
2:29 pm 14:29 Cloudy with Mist and Fog 44 6.7 41 5 89 89 WNW 10 17 29.88 1012 6 10 N/A
2:53 pm 14:53 Cloudy 45 7.2 41 5 86 86 NNW 7 11 29.84 1011 10 16 N/A
3:01 pm 15:01 Cloudy 44 6.7 41 5 89 89 NW 9 15 29.85 1011 10 16 N/A
3:41 pm 15:41 Cloudy 45 7.2 40 4.4 83 83 NW 9 15 29.85 1011 10 16 N/A
3:51 pm 15:51 Cloudy 45 7 39 4 81 81 NNW 8 13 29.85 1011 10 16 N/A
3:53 pm 15:53 Cloudy 45 7.2 40 4.4 83 83 NNW 9 15 29.83 1010 10 16 N/A
4:24 pm 16:24 Cloudy 45 7.2 39 3.9 80 80 NW 8 13 29.85 1011 10 16 N/A
4:49 pm 16:49 Cloudy 45 7 39 4 81 81 WNW 10 17 29.85 1011 10 16 N/A
4:53 pm 16:53 Cloudy 44 6.7 39 3.9 83 83 WNW 9 15 29.85 1011 10 16 N/A
5:20 pm 17:20 Cloudy 45 7.2 39 3.9 80 80 NW 3 6 29.85 1011 10 16 N/A
5:53 pm 17:53 Cloudy 45 7.2 39 3.9 80 80 WNW 7 11 29.85 1011 10 16 N/A
6:53 pm 18:53 Cloudy with Light Rain 44 6.7 40 4.4 85 85 W 3 6 29.87 1012 10 16 N/A
7:53 pm 19:53 Cloudy with Light Rain 44 6.7 40 4.4 85 85 W 3 6 29.88 1012 10 16 N/A
8:53 pm 20:53 Cloudy with Light Rain 43 6.1 40 4.4 89 89 N N/A 29.90 1013 10 16 0.01 0.25
9:53 pm 21:53 Cloudy 43 6.1 40 4.4 89 89 N N/A 29.90 1013 10 16 N/A
10:53 pm 22:53 Cloudy 43 6.1 41 5 93 93 WSW 3 6 29.91 1013 10 16 N/A
11:53 pm 23:53 Cloudy 43 6.1 40 4.4 89 89 WSW 6 9 29.90 1013 10 16 N/A

Powered by AerisWeather